When you browse on this site, cookies collect data to enhance your experience and personalize the content and advertising you see.
Visit our Privacy Policy to learn more. By continuing to use the site, you agree to this use of cookies and data.
  • In Spain
  • List of Countries
  • For 7 days
  • Water Temperature
  • Weather Map
  • Weather Widgets
  • user-avatar
    Login

    Hourly Weather Salta

    Today, 8 December, Sunday

    Time Temperature Precipitation Wind Pressure Humidity
    00:00 +20°C° 0 mm 1 mps 649 mmHg 84%
    01:00 +18°C° 0 mm 0 mps 649 mmHg 84%
    02:00 +18°C° 0 mm 0 mps 649 mmHg 85%
    03:00 +17°C° 0 mm 0 mps 649 mmHg 85%
    04:00 +17°C° 0 mm 0 mps 649 mmHg 86%
    05:00 +16°C° 0 mm 0 mps 648 mmHg 87%
    06:00 +18°C° 0 mm 0 mps 649 mmHg 81%
    07:00 +21°C° 0 mm 1 mps 650 mmHg 76%
    08:00 +23°C° 0 mm 1 mps 651 mmHg 70%
    09:00 +24°C° 0 mm 1 mps 651 mmHg 65%
    10:00 +26°C° 0 mm 2 mps 651 mmHg 61%
    11:00 +27°C° 0 mm 2 mps 651 mmHg 56%
    12:00 +27°C° 0.7 mm 2 mps 651 mmHg 60%
    13:00 +26°C° 0.7 mm 2 mps 650 mmHg 63%
    14:00 +25°C° 0.7 mm 2 mps 649 mmHg 66%
    15:00 +25°C° 0.9 mm 2 mps 649 mmHg 69%
    16:00 +24°C° 0.9 mm 2 mps 648 mmHg 71%
    17:00 +24°C° 0.9 mm 2 mps 648 mmHg 74%
    18:00 +22°C° 1.1 mm 1 mps 648 mmHg 80%
    19:00 +21°C° 1.1 mm 1 mps 649 mmHg 85%
    20:00 +20°C° 1.1 mm 1 mps 649 mmHg 90%
    21:00 +20°C° 0.8 mm 1 mps 650 mmHg 89%
    22:00 +20°C° 0.8 mm 1 mps 650 mmHg 89%
    23:00 +19°C° 0.8 mm 1 mps 651 mmHg 88%

    Tomorrow, 9 December, Monday

    Time Temperature Precipitation Wind Pressure Humidity
    00:00 +19°C° 0.5 mm 1 mps 651 mmHg 88%
    01:00 +17°C° 0.5 mm 0 mps 650 mmHg 88%
    02:00 +17°C° 0.5 mm 0 mps 650 mmHg 88%
    03:00 +17°C° 0.3 mm 0 mps 650 mmHg 88%
    04:00 +17°C° 0.3 mm 0 mps 650 mmHg 89%
    05:00 +18°C° 0.3 mm 1 mps 650 mmHg 90%
    06:00 +20°C° 0.2 mm 1 mps 651 mmHg 85%
    07:00 +21°C° 0.2 mm 1 mps 651 mmHg 81%
    08:00 +22°C° 0.2 mm 1 mps 652 mmHg 77%
    09:00 +24°C° 1.2 mm 1 mps 652 mmHg 73%
    10:00 +25°C° 1.2 mm 2 mps 652 mmHg 70%
    11:00 +26°C° 1.2 mm 2 mps 652 mmHg 67%
    12:00 +26°C° 1 mm 2 mps 651 mmHg 65%
    13:00 +27°C° 1 mm 2 mps 651 mmHg 63%
    14:00 +27°C° 1 mm 2 mps 650 mmHg 61%
    15:00 +26°C° 0.7 mm 2 mps 649 mmHg 67%
    16:00 +25°C° 0.7 mm 2 mps 649 mmHg 72%
    17:00 +24°C° 0.7 mm 1 mps 648 mmHg 77%
    18:00 +23°C° 0.3 mm 1 mps 648 mmHg 80%
    19:00 +22°C° 0.3 mm 1 mps 649 mmHg 82%
    20:00 +21°C° 0.3 mm 1 mps 649 mmHg 85%
    21:00 +21°C° 0.3 mm 1 mps 650 mmHg 85%
    22:00 +21°C° 0.3 mm 1 mps 650 mmHg 85%
    23:00 +21°C° 0.3 mm 1 mps 650 mmHg 85%

    Day after tomorrow, 10 December, Tuesday

    Time Temperature Precipitation Wind Pressure Humidity
    00:00 +20°C° 0.4 mm 1 mps 650 mmHg 85%
    01:00 +20°C° 0.4 mm 1 mps 650 mmHg 85%
    02:00 +20°C° 0.4 mm 1 mps 649 mmHg 85%
    03:00 +20°C° 0 mm 1 mps 649 mmHg 85%
    04:00 +19°C° 0 mm 1 mps 649 mmHg 84%
    05:00 +19°C° 0 mm 1 mps 650 mmHg 84%
    06:00 +21°C° 0 mm 1 mps 650 mmHg 79%
    07:00 +23°C° 0 mm 1 mps 651 mmHg 74%
    08:00 +24°C° 0 mm 1 mps 652 mmHg 69%
    09:00 +26°C° 0.1 mm 1 mps 652 mmHg 63%
    10:00 +28°C° 0.1 mm 2 mps 652 mmHg 57%
    11:00 +29°C° 0.1 mm 2 mps 652 mmHg 51%
    12:00 +30°C° 0.2 mm 2 mps 652 mmHg 50%
    13:00 +30°C° 0.2 mm 2 mps 651 mmHg 48%
    14:00 +31°C° 0.2 mm 2 mps 651 mmHg 46%
    15:00 +30°C° 0.5 mm 2 mps 650 mmHg 49%
    16:00 +29°C° 0.5 mm 1 mps 650 mmHg 52%
    17:00 +28°C° 0.5 mm 1 mps 649 mmHg 55%
    18:00 +26°C° 1.5 mm 1 mps 649 mmHg 64%
    19:00 +24°C° 1.5 mm 1 mps 649 mmHg 74%
    20:00 +22°C° 1.5 mm 1 mps 649 mmHg 83%
    21:00 +21°C° 0.4 mm 1 mps 649 mmHg 83%
    22:00 +21°C° 0.4 mm 1 mps 649 mmHg 83%
    23:00 +21°C° 0.4 mm 1 mps 650 mmHg 83%

    11 December, Wednesday

    Time Temperature Precipitation Wind Pressure Humidity
    00:00 +21°C° 0 mm 1 mps 649 mmHg 82%
    01:00 +20°C° 0 mm 1 mps 649 mmHg 81%
    02:00 +20°C° 0 mm 1 mps 648 mmHg 80%
    03:00 +20°C° 0 mm 1 mps 648 mmHg 80%
    04:00 +20°C° 0 mm 1 mps 648 mmHg 80%
    05:00 +20°C° 0 mm 1 mps 648 mmHg 80%
    06:00 +20°C° 0 mm 0 mps 649 mmHg 74%
    07:00 +22°C° 0 mm 0 mps 649 mmHg 69%
    08:00 +24°C° 0 mm 0 mps 650 mmHg 63%
    09:00 +27°C° 0 mm 1 mps 650 mmHg 58%
    10:00 +29°C° 0 mm 2 mps 650 mmHg 52%
    11:00 +30°C° 0 mm 2 mps 649 mmHg 46%
    12:00 +31°C° 0 mm 3 mps 649 mmHg 44%
    13:00 +33°C° 0 mm 3 mps 648 mmHg 43%
    14:00 +34°C° 0 mm 3 mps 647 mmHg 41%
    15:00 +34°C° 0 mm 2 mps 647 mmHg 41%
    16:00 +32°C° 0 mm 2 mps 646 mmHg 42%
    17:00 +32°C° 0 mm 2 mps 646 mmHg 42%
    18:00 +30°C° 0 mm 1 mps 646 mmHg 48%
    19:00 +28°C° 0 mm 1 mps 646 mmHg 54%
    20:00 +26°C° 0 mm 1 mps 646 mmHg 60%
    21:00 +25°C° 0 mm 1 mps 646 mmHg 62%
    22:00 +25°C° 0 mm 1 mps 647 mmHg 63%
    23:00 +24°C° 0 mm 1 mps 647 mmHg 65%

    12 December, Thursday

    Time Temperature Precipitation Wind Pressure Humidity
    00:00 +24°C° 0 mm 1 mps 647 mmHg 65%
    01:00 +24°C° 0 mm 1 mps 647 mmHg 66%
    02:00 +24°C° 0 mm 1 mps 647 mmHg 67%
    03:00 +23°C° 0.1 mm 1 mps 647 mmHg 68%
    04:00 +23°C° 0.1 mm 1 mps 648 mmHg 69%
    05:00 +23°C° 0.1 mm 1 mps 648 mmHg 70%
    06:00 +24°C° 0.2 mm 1 mps 649 mmHg 68%
    07:00 +25°C° 0.2 mm 2 mps 650 mmHg 67%
    08:00 +27°C° 0.2 mm 2 mps 651 mmHg 65%
    09:00 +27°C° 1.2 mm 2 mps 651 mmHg 64%
    10:00 +27°C° 1.2 mm 3 mps 651 mmHg 64%
    11:00 +28°C° 1.2 mm 4 mps 652 mmHg 63%
    12:00 +28°C° 0.4 mm 4 mps 651 mmHg 63%
    13:00 +28°C° 0.4 mm 4 mps 650 mmHg 63%
    14:00 +27°C° 0.4 mm 4 mps 649 mmHg 64%
    15:00 +27°C° 0.2 mm 4 mps 649 mmHg 66%
    16:00 +26°C° 0.2 mm 3 mps 649 mmHg 67%
    17:00 +25°C° 0.2 mm 3 mps 649 mmHg 69%
    18:00 +24°C° 0.1 mm 3 mps 649 mmHg 71%
    19:00 +24°C° 0.1 mm 2 mps 650 mmHg 73%
    20:00 +23°C° 0.1 mm 2 mps 650 mmHg 75%
    21:00 +21°C° 0 mm 2 mps 651 mmHg 73%
    22:00 +22°C° 0 mm 1 mps 651 mmHg 72%
    23:00 +21°C° 0 mm 1 mps 651 mmHg 70%

    13 December, Friday

    Time Temperature Precipitation Wind Pressure Humidity
    00:00 +21°C° 0 mm 1 mps 651 mmHg 69%
    01:00 +21°C° 0 mm 1 mps 651 mmHg 67%
    02:00 +20°C° 0 mm 1 mps 650 mmHg 66%
    03:00 +20°C° 0 mm 1 mps 650 mmHg 64%
    04:00 +20°C° 0 mm 1 mps 650 mmHg 63%
    05:00 +19°C° 0 mm 1 mps 650 mmHg 61%
    06:00 +20°C° 0 mm 1 mps 651 mmHg 58%
    07:00 +21°C° 0 mm 1 mps 651 mmHg 55%
    08:00 +22°C° 0 mm 1 mps 651 mmHg 52%
    09:00 +23°C° 0 mm 1 mps 652 mmHg 48%
    10:00 +25°C° 0 mm 1 mps 652 mmHg 44%
    11:00 +26°C° 0 mm 2 mps 652 mmHg 40%
    12:00 +26°C° 0.1 mm 2 mps 651 mmHg 42%
    13:00 +26°C° 0.1 mm 2 mps 651 mmHg 44%
    14:00 +26°C° 0.1 mm 2 mps 650 mmHg 47%
    15:00 +26°C° 0 mm 2 mps 649 mmHg 51%
    16:00 +25°C° 0 mm 1 mps 649 mmHg 56%
    17:00 +24°C° 0 mm 1 mps 648 mmHg 61%
    18:00 +24°C° 0 mm 1 mps 649 mmHg 62%
    19:00 +23°C° 0 mm 1 mps 649 mmHg 63%
    20:00 +22°C° 0 mm 1 mps 650 mmHg 64%
    21:00 +22°C° 0 mm 1 mps 650 mmHg 66%
    22:00 +22°C° 0 mm 1 mps 650 mmHg 67%
    23:00 +21°C° 0 mm 1 mps 650 mmHg 69%
    Show more